This demonstration page uses our WeatherBlox Daily Observations layout. Learn more.

Left ArrowRight Arrow

53.62937, 11.41316

Hourly Observations for December 3, 2019

Temp ( °F °C ) Dew Point ( °F °C ) Humidity (%) Winds ( mph kmh ) Pressure ( in mb ) Visibility ( mi km ) Precip ( " mm )
6:50 am 06:50 Mostly Clear with Mist and Fog 32 0 32 0 100 100 WSW 2 4 30.27 1025 2 3 N/A
7:20 am 07:20 Mostly Clear with Mist and Fog 34 1 34 1 100 100 VRB 2 4 30.27 1025 2 4 N/A
7:50 am 07:50 Mostly Clear with Fog 34 1 34 1 100 100 SE 1 2 30.27 1025 0 1 N/A
8:20 am 08:20 Partly Cloudy with Mist and Fog 36 2 34 1 93 93 VRB 1 2 30.27 1025 1 1 N/A
8:50 am 08:50 Partly Cloudy with Mist and Fog 36 2 36 2 100 100 VRB 2 4 30.27 1025 1 2 N/A
9:20 am 09:20 Partly Cloudy with Mist and Fog 37 3 36 2 93 93 SSW 3 6 30.27 1025 1 2 N/A
9:50 am 09:50 Partly Cloudy with Mist and Fog 37 3 37 3 100 100 SW 3 6 30.27 1025 1 2 N/A
10:20 am 10:20 Partly Cloudy with Mist and Fog 39 4 37 3 93 93 SW 3 6 30.27 1025 1 2 N/A
10:50 am 10:50 Mostly Cloudy with Mist and Fog 39 4 39 4 100 100 SW 5 7 30.27 1025 2 3 N/A
11:20 am 11:20 Mostly Cloudy with Mist and Fog 41 5 39 4 93 93 WSW 7 11 30.27 1025 2 4 N/A
11:50 am 11:50 Mostly Cloudy with Mist and Fog 41 5 41 5 100 100 SW 6 9 30.24 1024 2 4 N/A
12:20 pm 12:20 Mostly Cloudy with Mist and Fog 43 6 43 6 100 100 WSW 8 13 30.24 1024 1 2 N/A
12:50 pm 12:50 Mostly Cloudy with Mist and Fog 43 6 43 6 100 100 SW 7 11 30.24 1024 2 4 N/A
1:20 pm 13:20 Mostly Cloudy 45 7 43 6 93 93 WSW 9 15 30.24 1024 5 8 N/A
1:50 pm 13:50 Mostly Cloudy 45 7 43 6 93 93 WSW 12 19 30.24 1024 30 48 N/A
2:20 pm 14:20 Mostly Cloudy 45 7 43 6 93 93 WSW 12 19 30.24 1024 30 48 N/A
2:50 pm 14:50 Mostly Cloudy 45 7 41 5 87 87 WSW 10 17 30.21 1023 30 48 N/A
3:20 pm 15:20 Mostly Cloudy 45 7 41 5 87 87 WSW 8 13 30.21 1023 30 48 N/A
3:50 pm 15:50 Mostly Cloudy 45 7 41 5 87 87 WSW 12 19 30.21 1023 30 48 N/A
4:20 pm 16:20 Partly Cloudy 45 7 41 5 87 87 WSW 9 15 30.21 1023 30 48 N/A
4:50 pm 16:50 Partly Cloudy 45 7 39 4 81 81 WSW 10 17 30.21 1023 30 48 N/A
5:20 pm 17:20 Mostly Clear 45 7 39 4 81 81 WSW 9 15 30.21 1023 30 48 N/A
5:50 pm 17:50 Mostly Clear 45 7 39 4 81 81 WSW 10 17 30.21 1023 7 11 N/A
6:20 pm 18:20 Mostly Clear 45 7 39 4 81 81 WSW 12 19 30.18 1022 30 48 N/A
6:50 pm 18:50 Mostly Cloudy 45 7 39 4 81 81 W 13 20 30.18 1022 30 48 N/A
7:20 pm 19:20 Mostly Cloudy 45 7 39 4 81 81 WSW 13 20 30.18 1022 30 48 N/A
7:50 pm 19:50 Mostly Cloudy 45 7 39 4 81 81 WSW 14 22 30.18 1022 30 48 N/A

Powered by AerisWeather